Location: Savona
(44.2830°N, 8.5000°E)
Time: 04:17:01
(UTC+01:00)

ISS - Visible Passes

Search period start: 23 January 2019 00:00
Search period end: 02 February 2019 00:00
Orbit: 404 x 411 km, 51.6° (Epoch: 23 January)

Date Brightness Start Highest point End Pass type
(mag) Time Alt. Az. Time Alt. Az. Time Alt. Az.
23 Jan -2.7 18:37:06 10° SSW 18:40:02 30° SE 18:41:04 25° ESE visible
23 Jan -0.5 20:13:18 10° W 20:13:48 13° W 20:13:48 13° W visible
24 Jan -3.4 19:21:48 10° WSW 19:24:46 63° WNW 19:24:46 63° WNW visible
25 Jan -3.8 18:30:26 10° SW 18:33:43 71° SSE 18:35:40 22° ENE visible
25 Jan -0.8 20:07:33 10° WNW 20:08:24 15° WNW 20:08:24 15° WNW visible
26 Jan -2.8 19:15:52 10° W 19:18:58 38° NNW 19:19:13 37° N visible
27 Jan -3.4 18:24:15 10° WSW 18:27:30 55° NNW 18:30:00 16° NE visible
27 Jan -0.9 20:01:48 10° WNW 20:02:43 15° NW 20:02:43 15° NW visible
28 Jan -2.3 19:10:04 10° WNW 19:12:56 26° NNW 19:13:26 25° N visible
29 Jan -2.6 18:18:19 10° W 18:21:21 33° NNW 18:24:08 12° NE visible
29 Jan -1.1 19:55:52 10° NW 19:56:51 15° NW 19:56:51 15° NW visible
30 Jan -2.1 19:04:14 10° WNW 19:06:54 22° N 19:07:31 21° NNE visible
31 Jan -2.2 18:12:28 10° WNW 18:15:15 24° N 18:18:04 10° NE visible
31 Jan -1.3 19:49:41 10° NW 19:50:54 17° NNW 19:50:54 17° NNW visible
01 Feb -2.2 18:58:09 10° NW 19:00:51 22° N 19:01:34 21° NNE visible
